Regional Weather Roundup
Issued by NWS Cleveland, OH

Home | Current Version | Previous Version | Graphics & Text | Print | Product List | Glossary On
Versions: 1 2 3 4 5 6 7 8 9 10 11 12 13 14 15 16 17 18 19 20 21 22 23 24 25 26 27 28 29 30 31 32 33 34 35 36 37 38 39 40 41 42 43 44 45 46 47 48 49 50
000
ASUS41 KCLE 242012
RWRCLE
OHIO REGIONAL WEATHER ROUNDUP
NATIONAL WEATHER SERVICE WILMINGTON, OH
400 PM EDT FRI MAR 24 2017

NOTE: "FAIR" INDICATES FEW OR NO CLOUDS BELOW 12,000 FEET WITH NO
SIGNIFICANT WEATHER AND/OR OBSTRUCTIONS TO VISIBILITY.

OHZ001>008-015>018-024>027-034-035-043-044-242100-
   NORTHWEST OHIO

CITY           SKY/WX    TMP DP  RH WIND       PRES   REMARKS
DEFIANCE       FAIR      75  53  46 W16G35    29.97F
FINDLAY        FAIR      76  53  44 SW21G36   30.00F
TOLEDO EXPRESS FAIR      74  53  48 SW22G31   29.96F
TOLEDO EXEC    FAIR      76  55  48 SW22G30   29.97F
LIMA           FAIR      73  56  54 SW28G38   30.03F
$$

OHZ009>014-019>023-028>033-038-089-242100-
   NORTHEAST OHIO

CITY           SKY/WX    TMP DP  RH WIND       PRES   REMARKS
CLE-HOPKINS    PTSUNNY   73  50  44 SW22G35   30.03F
CLE-LAKEFRONT  FAIR      75  51  43 SW22G30   29.98F
CUY CO. ARPT   MOSUNNY   73  52  46 W21G32    30.00F
LORAIN-ELYRIA  FAIR      70  53  54 SW25G35   30.02F
ASHTABULA      FAIR      71  50  47 SW15G24   30.00F
AKRON-CANTON   PTSUNNY   70  50  49 SW21G29   30.06F
WOOSTER        FAIR      70  52  52 W16G28    30.05F
MANSFIELD      FAIR      71  52  50 SW18G33   30.05F
YOUNGSTOWN     PTSUNNY   72  50  45 SW20G26   30.03F
$$

OHZ042-051>053-060>062-070>072-077>081-242100-
  SOUTHWEST OHIO

CITY           SKY/WX    TMP DP  RH WIND       PRES   REMARKS
CINC-COVINGTON PTSUNNY   73  52  47 S13G26    30.13F
CINC-LUNKEN    PTSUNNY   73  54  51 SW15G26   30.13F
HAMILTON       CLOUDY    75  54  47 S9G17     30.13F
DAYTON         FAIR      73  53  49 SW23G36   30.09F
WRIGHT-PAT AFB PTSUNNY   75  52  45 S21       30.09F
DAYTON GENERAL FAIR      72  52  49 SW14G25   30.11F
WILMINGTON     PTSUNNY   72  54  53 SW16      30.13F
$$

OHZ036-037-039>041-045>050-054>059-063>069-073>076-082>088-242100-
  CENTRAL AND SOUTHEAST OHIO

CITY           SKY/WX    TMP DP  RH WIND       PRES   REMARKS
COLUMBUS       FAIR      73  52  47 SW23G31   30.11F
OSU AIRPORT    FAIR      74  54  49 SW20G28   30.08F
BOLTON FIELD   SUNNY     73  55  53 SW23G31   30.12F
RICKENBACK AFB FAIR      72  53  51 SW17G24   30.12F
NEWARK         FAIR      72  52  49 SW17G30   30.10F
MARION         FAIR      74  53  48 SW21G31   30.05F
LANCASTER      FAIR      75  53  46 SW16G23   30.13F
ZANESVILLE     FAIR      75  52  44 W15G24    30.11F
NEW PHILLY     FAIR      71  51  49 SW13G23   30.09F
$$




USA.gov is the U.S. government's official web portal to all federal, state and local government web resources and services.